Time[GMT],air_temperature[C](-3m),wind_speed[m/s](-4m),wind_gust[m/s](-4m),wind_direction[degrees](-4m),visibility[m](-3m),barometric_pressure[millibars](-3m)
2005-02-25 07:00,-5.3,10.9,13.2, 33,2173,1018.02
2005-02-25 08:00,-5.7,10.4,12.2, 23,2944,1017.36
2005-02-25 09:00,-6.2,11.4,13.2, 15,2956,1017.12
2005-02-25 10:00,-6.7,10.3,12.5, 11,2956,1016.76
2005-02-25 11:00,-7.1,10.6,12.1,  8,2956,1016.34
2005-02-25 12:00,-6.9,10.6,12.9,  4,2956,1016.40
2005-02-25 13:00,-7.0,10.7,13.1,356,2956,1017.00
2005-02-25 14:00,-7.0,10.3,12.4,357,2956,1016.70
2005-02-25 15:00,-7.0,10.1,12.0,  3,2957,1016.46
2005-02-25 16:00,-6.3,8.6,10.6,  8,2957,1015.80
2005-02-25 17:00,-5.6,7.6,9.8, 11,2957,1015.20
2005-02-25 18:00,-4.7,7.1,9.3,  8,2957,1014.00
2005-02-25 19:00,-4.4,4.8,6.4,  2,2957,1014.42
2005-02-25 20:00,-4.1,4.1,6.4, 16,2957,1014.42
2005-02-25 21:00,-3.8,3.6,5.6, 44,2957,1015.08
2005-02-25 22:00,-3.9,1.5,2.4, 32,2957,1015.98
2005-02-25 23:00,-3.9,0.9,2.2, 22,2956,1016.76
2005-02-26 00:00,-3.0,3.3,5.1,325,2956,1016.76
2005-02-26 01:00,-2.9,3.1,5.3,326,2956,1016.82
2005-02-26 02:00,-2.9,3.1,4.5,323,2956,1016.70
2005-02-26 03:00,-2.9,3.8,5.4,316,2956,1016.70
2005-02-26 04:00,-3.2,4.4,5.3,333,2956,1016.64
2005-02-26 05:00,-3.6,5.6,7.3,352,2956,1016.40
2005-02-26 06:00,-4.1,7.2,8.6,338,2956,1016.58
2005-02-26 07:00,-4.4,8.0,9.4,350,2956,1016.34
2005-02-26 08:00,-4.9,8.8,12.0,352,2956,1016.04
2005-02-26 09:00,-5.2,7.1,9.1,356,2956,1016.52
2005-02-26 10:00,-5.5,6.1,7.4,346,2956,1017.06
2005-02-26 11:00,-5.9,5.7,7.7,348,2956,1017.36
2005-02-26 12:00,-6.0,5.7,7.1,342,2957,1017.90
2005-02-26 13:00,-6.0,5.2,6.4,345,2957,1018.14
2005-02-26 14:00,-6.3,3.9,5.3,336,2957,1017.90
2005-02-26 15:00,-5.7,3.5,4.7,304,2957,1017.54
2005-02-26 16:00,-5.4,4.2,6.1,280,2957,1016.82
2005-02-26 17:00,-4.9,4.1,5.6,291,2957,1015.68
2005-02-26 18:00,-3.9,5.2,6.9,268,2957,1014.72
2005-02-26 19:00,-2.7,6.7,9.6,269,2957,1013.88
2005-02-26 20:00,-2.6,6.7,8.2,254,2957,1013.76
2005-02-26 21:00,-1.9,8.0,9.8,253,2955,1013.40
2005-02-26 22:00,-1.3,8.2,10.3,259,2956,1013.28
2005-02-26 23:00,-1.0,8.4,10.5,265,2956,1013.76
2005-02-27 00:00,-1.0,7.8,9.8,296,2956,1014.00
2005-02-27 01:00,-1.6,9.3,12.3,305,2956,1014.06
2005-02-27 02:00,-2.5,11.2,12.9,306,2956,1014.54
2005-02-27 03:00,-3.1,10.5,12.3,311,2956,1014.48
2005-02-27 04:00,-3.6,10.5,12.8,311,2956,1014.18
2005-02-27 05:00,-3.8,10.6,13.2,294,2956,1013.82
2005-02-27 06:00,-4.0,11.4,13.8,300,2956,1013.76
2005-02-27 07:00,-3.8,12.4,15.5,300,2956,1013.28
2005-02-27 08:00,-4.1,12.8,15.0,292,2852,1013.16
2005-02-27 09:00,-4.5,12.1,14.7,289,2956,1013.64
2005-02-27 10:00,-4.8,13.7,16.5,284,2956,1013.58
2005-02-27 11:00,-5.6,12.7,15.8,294,2956,1014.12
2005-02-27 12:00,-5.7,12.8,16.5,286,2878,1014.54
2005-02-27 13:00,-5.8,13.4,16.4,285,2576,1014.60
2005-02-27 14:00,-5.5,12.5,15.0,291,2562,1014.42
2005-02-27 15:00,-4.4,12.1,15.5,291,2078,1014.06
2005-02-27 16:00,-4.0,10.5,13.2,280,2471,1013.70
2005-02-27 17:00,-3.1,11.6,14.2,295,2942,1012.26
2005-02-27 18:00,-2.5,12.4,15.8,286,2950,1011.96
2005-02-27 19:00,-1.7,11.5,14.5,279,2948,1012.14
2005-02-27 20:00,-1.1,13.5,16.1,289,2788,1012.14
2005-02-27 21:00,-0.8,13.7,16.7,291,2826,1012.68
2005-02-27 22:00,-0.8,12.4,14.8,292,2918,1013.52
2005-02-27 23:00,-1.1,12.0,14.8,293,2956,1014.96
2005-02-28 00:00,-1.5,12.2,14.2,291,2956,1015.86
2005-02-28 01:00,-2.0,10.3,12.6,296,2956,1017.06
2005-02-28 02:00,-2.4,11.4,13.9,296,2956,1017.60
2005-02-28 03:00,-2.8,9.9,12.4,297,2956,1017.78
2005-02-28 04:00,-3.4,8.5,10.9,302,2956,1017.60
2005-02-28 05:00,-3.6,8.0,10.8,297,2956,1018.14
2005-02-28 06:00,-3.7,7.6,9.1,288,2956,1018.26
2005-02-28 07:00,-3.8,8.3,10.1,304,2956,1017.30
2005-02-28 08:00,-4.1,7.1,8.6,311,2956,1018.14
2005-02-28 09:00,-4.9,5.7,7.2,324,2956,1018.50
2005-02-28 10:00,-4.8,3.9,5.9,329,2956,1018.86
2005-02-28 11:00,-5.2,5.0,6.5,350,2956,1018.14
2005-02-28 12:00,-4.9,5.2,6.4,353,2956,1018.32
2005-02-28 13:00,-4.7,3.4,4.5,329,2892,1019.22
2005-02-28 14:00,-4.6,3.0,4.1,359,2853,1019.10
2005-02-28 15:00,-4.1,2.4,3.5, 11,2953,1018.14
2005-02-28 16:00,-3.5,1.7,2.6, 64,2950,1017.78
2005-02-28 17:00,-2.8,1.5,2.8,144,2949,1017.54
2005-02-28 18:00,-1.6,3.5,4.3,133,2914,1016.76
2005-02-28 19:00,-1.3,3.8,4.8,102,2957,1016.04
2005-02-28 20:00,-1.3,4.5,5.7, 92,2957,1015.20
2005-02-28 21:00,-1.3,5.2,6.2, 95,2957,1014.48
2005-02-28 22:00,-1.2,6.0,7.6, 88,2956,1014.06
2005-02-28 23:00,-0.9,7.3,8.6, 63,2956,1013.04
2005-03-01 00:00,-0.3,7.5,8.7, 78,2956,1012.14
2005-03-01 01:00,-0.2,8.8,10.8, 65,2956,1010.22
2005-03-01 02:00,0.0,9.5,11.1, 60,2956,1009.01
2005-03-01 03:00,0.2,10.5,12.4, 56,2956,1007.03
2005-03-01 04:00,0.2,11.7,14.5, 57,2956,1005.29
2005-03-01 05:00,-0.1,11.9,14.1, 38,2919,1003.07
2005-03-01 06:00,-1.2,13.4,16.0, 62,2956,1001.45
2005-03-01 07:00,-1.5,13.4,16.5, 41,2956,998.99
2005-03-01 08:00,-2.0,13.4,15.8, 33,2956,996.47
2005-03-01 09:00,-2.1,14.5,19.6, 31,2956,993.17
2005-03-01 10:00,-2.3,14.4,17.4, 25,2956,991.37
2005-03-01 11:00,-2.5,14.9,18.6, 14,2956,989.15
2005-03-01 12:00,-2.3,15.1,18.4, 19,2956,987.65
2005-03-01 13:00,-2.3,14.8,19.0, 19,2956,986.27
2005-03-01 14:00,-2.5,14.1,17.7,  9,2956,985.67
2005-03-01 15:00,-2.7,10.9,13.2,351,2956,986.75
2005-03-01 16:00,-2.8,10.6,13.0,348,2956,986.09
2005-03-01 17:00,-2.9,8.6,10.2,338,2956,985.79
2005-03-01 18:00,-2.9,6.3,8.1,318,2956,986.39
2005-03-01 19:00,-2.9,6.3,8.0,294,2956,986.81
2005-03-01 20:00,-2.9,5.7,7.4,287,2956,987.41
2005-03-01 21:00,-2.8,6.4,8.4,272,2956,987.95
2005-03-01 22:00,-2.7,6.7,8.4,282,2956,987.83
2005-03-01 23:00,-2.7,6.4,7.8,273,2956,988.25
2005-03-02 00:00,-2.6,4.5,6.7,286,2956,988.85
2005-03-02 01:00,-2.7,1.5,3.4,283,2956,988.61
2005-03-02 02:00,-2.8,1.7,3.3,249,2956,988.31
2005-03-02 03:00,-2.7,2.5,4.0,224,2956,987.71
2005-03-02 04:00,-2.6,1.7,3.0,294,2956,986.93
2005-03-02 05:00,-2.6,3.1,4.0, 20,2956,986.27
2005-03-02 06:00,-2.7,5.4,6.4, 10,2956,985.97
2005-03-02 07:00,-2.9,4.7,5.8,356,2956,985.73
2005-03-02 08:00,-3.2,5.3,6.7,359,2956,985.37
2005-03-02 09:00,-3.7,6.3,7.5,340,2956,985.55
2005-03-02 10:00,-4.1,7.7,9.7,345,2956,986.09
2005-03-02 11:00,-4.3,7.7,9.6,323,2956,986.57
2005-03-02 12:00,-4.4,7.0,8.7,318,2956,987.17
2005-03-02 13:00,-4.5,8.0,10.5,315,2956,987.41
2005-03-02 14:00,-4.4,8.1,10.1,302,2956,987.29
2005-03-02 15:00,-4.1,9.3,11.5,305,2957,987.23
2005-03-02 16:00,-3.7,9.0,11.8,292,2957,987.35
2005-03-02 17:00,-3.2,10.7,12.9,299,2957,986.99
2005-03-02 18:00,-2.7,9.1,11.9,296,2008,986.63
2005-03-02 19:00,-2.4,9.5,11.9,291, 244,986.99
2005-03-02 20:00,-2.3,9.3,10.6,297,2957,987.29
2005-03-02 21:00,-2.1,9.9,11.8,299,2956,988.13
2005-03-02 22:00,-2.3,11.4,14.3,301,2956,989.33
2005-03-02 23:00,-2.7,12.4,15.2,308,2956,990.41
2005-03-03 00:00,-3.0,10.8,13.8,298,2956,991.49
2005-03-03 01:00,-3.4,11.1,13.3,296,2956,991.97
2005-03-03 02:00,-3.6,10.6,12.6,292,2956,992.15
2005-03-03 03:00,-3.5,9.9,12.5,294,2956,991.97
2005-03-03 04:00,-3.3,10.6,13.3,290,2956,991.97
2005-03-03 05:00,-3.1,11.9,13.8,286,2956,991.91
2005-03-03 06:00,-2.8,10.6,12.8,286,2956,991.97
2005-03-03 07:00,-2.8,10.3,11.9,290,2956,991.85
2005-03-03 08:00,-3.1,9.5,12.2,295,2956,991.85
2005-03-03 09:00,-3.0,9.0,11.9,292,2956,992.51
2005-03-03 10:00,-3.4,8.9,11.0,300,2956,993.29
2005-03-03 11:00,-4.2,9.1,10.9,304,2956,994.31
2005-03-03 12:00,-5.3,8.4,10.9,294,2956,995.21
2005-03-03 13:00,-5.6,9.3,11.4,297,2764,995.33
2005-03-03 14:00,-5.9,9.0,11.6,296,2957,995.75
2005-03-03 15:00,-5.7,10.3,12.6,297,2902,996.05
2005-03-03 16:00,-5.9,10.4,12.4,288,2954,996.05
2005-03-03 17:00,-5.8,10.3,13.1,295,2937,996.65
2005-03-03 18:00,-5.9,9.3,12.0,284,2957,996.77
2005-03-03 19:00,-5.3,9.2,11.9,296,2942,996.95
2005-03-03 20:00,-4.4,10.2,12.9,295,2804,997.43
2005-03-03 21:00,-4.3,11.0,13.6,298,2957,997.67
2005-03-03 22:00,-4.5,9.9,13.2,323,2849,998.63
2005-03-03 23:00,-5.1,11.2,13.8,331,2956,1000.01
2005-03-04 00:00,-5.6,11.8,14.1,317,2956,1001.09
2005-03-04 01:00,-6.0,11.6,14.4,316,2956,1002.05
2005-03-04 02:00,-6.4,11.1,13.3,314,2956,1003.43
2005-03-04 03:00,-6.8,11.3,13.7,311,2956,1003.67
2005-03-04 04:00,-6.9,11.4,14.0,309,2956,1003.91
2005-03-04 05:00,-6.6,9.8,12.6,298,2956,1004.51
2005-03-04 06:00,-6.3,10.2,12.1,294,2956,1004.81
2005-03-04 07:00,-5.4,12.6,16.6,291,2864,1004.27
2005-03-04 08:00,-5.1,10.2,12.0,291,2956,1004.33
2005-03-04 09:00,-5.1,10.8,13.0,303,2956,1004.15
2005-03-04 10:00,-5.5,10.0,12.4,290,2956,1004.63
2005-03-04 11:00,-5.8,9.3,11.7,289,2956,1005.35
2005-03-04 12:00,-5.9,10.5,12.8,287,1850,1005.65
2005-03-04 13:00,-5.9,10.9,13.4,287,2426,1005.83
2005-03-04 14:00,-5.8,10.0,13.2,283,2199,1005.71
2005-03-04 15:00,-5.4,9.3,11.5,266,2947,1005.35
2005-03-04 16:00,-5.1,10.2,12.6,273,2949,1004.99
2005-03-04 17:00,-4.5,9.8,12.2,264,2827,1004.63
2005-03-04 18:00,-3.6,9.0,11.0,264,2886,1004.09
2005-03-04 19:00,-2.4,8.5,11.9,286,2778,1003.61
2005-03-04 20:00,-2.2,10.0,12.7,288,2160,1003.19
2005-03-04 21:00,-1.6,9.2,11.9,294,2288,1003.19
2005-03-04 22:00,-1.5,11.5,13.8,290,2951,1003.43
2005-03-04 23:00,-1.7,8.8,10.7,289,2956,1004.15
2005-03-05 00:00,-1.6,9.8,12.4,288,2956,1004.63
2005-03-05 01:00,-1.8,9.5,11.0,295,2956,1005.17
2005-03-05 02:00,-2.2,10.5,12.6,300,2956,1005.89
2005-03-05 03:00,-2.4,9.9,13.0,292,2956,1005.89
2005-03-05 04:00,-2.4,9.3,11.9,286,2956,1005.83
2005-03-05 05:00,-2.2,10.0,11.8,287,2956,1005.41
2005-03-05 06:00,-2.1,9.5,11.4,285,2956,1005.29
2005-03-05 07:00,-2.0,8.6,10.9,288,2956,1005.29
2005-03-05 08:00,-2.1,8.9,10.4,285,2956,1004.69
2005-03-05 09:00,-1.8,8.6,10.6,276,2956,1004.39
2005-03-05 10:00,-1.9,9.5,11.9,282,2956,1004.63
2005-03-05 11:00,-2.1,9.0,10.9,288,2956,1004.75
2005-03-05 12:00,-2.5,9.6,11.2,289,2954,1005.05
2005-03-05 13:00,-2.7,10.0,13.0,283,2957,1005.29
2005-03-05 14:00,-2.5,10.2,12.8,289,2945,1005.17
2005-03-05 15:00,-2.2,8.9,10.9,287,2956,1005.05
2005-03-05 16:00,-1.1,9.5,11.6,292,2953,1004.57
2005-03-05 17:00,-0.4,8.2,10.7,284,2946,1004.21
2005-03-05 18:00,0.3,8.4,10.0,281,2949,1003.49
2005-03-05 19:00,0.7,8.0,10.0,291,2955,1002.95
2005-03-05 20:00,1.2,7.5,8.9,278,2909,1002.83
2005-03-05 21:00,1.4,8.5,10.8,270,2110,1002.47
2005-03-05 22:00,1.7,7.2,8.5,266,2659,1002.53
2005-03-05 23:00,1.9,5.8,6.9,280,2956,1003.37
2005-03-06 00:00,1.9,6.2,7.3,250,2956,1003.49
2005-03-06 01:00,2.2,5.8,6.7,265,2956,1003.61
2005-03-06 02:00,2.2,6.4,7.5,276,2956,1003.61
2005-03-06 03:00,1.8,7.0,8.7,295,2956,1003.79
2005-03-06 04:00,1.3,7.2,8.4,306,2956,1003.91
2005-03-06 05:00,0.8,5.9,6.9,300,2956,1004.21
2005-03-06 06:00,0.8,6.1,7.9,304,2956,1004.21
2005-03-06 07:00,0.6,4.7,5.8,291,2956,1003.85
2005-03-06 08:00,0.7,4.8,5.6,290,2956,1003.67
2005-03-06 09:00,0.7,3.7,4.4,273,2956,1004.03
2005-03-06 10:00,1.0,4.9,6.0,213,2956,1004.09
2005-03-06 11:00,1.2,6.5,7.6,230,2956,1003.97
2005-03-06 12:00,1.0,7.6,8.8,232,2956,1003.91
2005-03-06 13:00,0.9,7.1,8.4,233,2956,1003.91
2005-03-06 14:00,0.9,8.8,10.4,238,2951,1002.95
2005-03-06 15:00,0.9,9.3,10.7,233,2953,1001.81
2005-03-06 16:00,1.2,9.1,10.4,226,2943,1000.79
2005-03-06 17:00,1.5,9.1,10.7,219,2955,999.05
2005-03-06 18:00,1.6,10.5,12.6,220,2939,997.49
2005-03-06 19:00,2.3,10.9,12.7,218,2941,996.47
2005-03-06 20:00,2.6,10.1,11.9,209,2941,995.51
2005-03-06 21:00,3.0,10.9,12.9,207,2930,994.13
2005-03-06 22:00,2.6,12.4,15.0,233,2901,994.43
2005-03-06 23:00,2.1,10.4,12.9,226,2914,994.91
2005-03-07 00:00,2.6,7.9,9.7,229,2942,995.21
2005-03-07 01:00,2.4,8.1,9.7,242,2951,995.51
2005-03-07 02:00,2.2,8.6,10.5,246,2936,996.17
2005-03-07 03:00,2.2,9.2,11.4,250,2947,996.53
2005-03-07 04:00,2.2,8.2,10.2,250,2941,996.77
2005-03-07 05:00,2.2,7.3,8.5,250,2946,997.43
2005-03-07 06:00,2.3,6.6,8.0,243,2952,998.33
2005-03-07 07:00,2.4,8.3,9.7,248,2951,999.17
2005-03-07 08:00,2.1,6.7,8.0,262,2934,1000.07
2005-03-07 09:00,1.5,6.7,8.3,316,2956,1002.11
2005-03-07 10:00,0.6,8.6,10.9,329,2956,1003.13
2005-03-07 11:00,-0.7,7.7,9.2,342,2956,1004.21
2005-03-07 12:00,-1.8,7.3,8.7,  1,2753,1005.35
2005-03-07 13:00,-3.2,6.3,7.9,  8,2829,1006.43
2005-03-07 14:00,-3.4,4.2,5.6, 15,2954,1006.61
2005-03-07 15:00,-3.5,3.9,5.1, 40,2920,1006.97
2005-03-07 16:00,-3.9,5.1,6.0, 83,2955,1006.67
2005-03-07 17:00,-3.5,6.1,7.4, 76,2957,1005.71
2005-03-07 18:00,-3.0,6.1,7.6, 89,2957,1005.47
2005-03-07 19:00,-1.8,7.5,9.1,109,2816,1004.27
2005-03-07 20:00,-1.1,8.5,9.7,113,2957,1003.19
2005-03-07 21:00,-0.1,9.5,11.1,120,2956,1001.81
2005-03-07 22:00,1.2,10.8,12.6,130,2872,1000.25
2005-03-07 23:00,2.2,10.9,13.3,135,2661,998.93
2005-03-08 00:00,3.0,8.7,10.9,140,2629,998.51
2005-03-08 01:00,3.5,7.0,8.7,150,2640,997.13
2005-03-08 02:00,3.9,7.1,8.0,160,2498,995.93
2005-03-08 03:00,4.1,6.6,7.6,158,2270,994.43
2005-03-08 04:00,4.5,8.0,9.4,179,2200,993.29
2005-03-08 05:00,4.5,7.9,9.6,186,2071,992.69
2005-03-08 06:00,4.4,7.6,8.8,184,2047,991.73
2005-03-08 07:00,4.7,8.3,9.5,187,2217,990.47
2005-03-08 08:00,4.6,8.2,9.4,182,2263,989.45
2005-03-08 09:00,4.5,7.5,8.9,181,2262,989.33
2005-03-08 10:00,4.6,9.4,10.6,180,2265,988.25
2005-03-08 11:00,4.6,8.2,10.1,184,2259,987.53
2005-03-08 12:00,4.7,8.2,9.6,192,2262,987.23
2005-03-08 13:00,4.4,6.6,7.6,191,2165,986.63
2005-03-08 14:00,4.1,5.2,6.5,171,1843,986.09
2005-03-08 15:00,4.2,6.9,8.1,170,1462,985.67
2005-03-08 16:00,4.0,5.9,6.7,162,1578,984.47
2005-03-08 17:00,3.9,4.5,5.4,173,1319,983.09
2005-03-08 18:00,3.7,2.7,3.4,194,1085,982.19
2005-03-08 19:00,3.3,1.8,3.5,144, 318,981.35
2005-03-08 20:00,2.9,3.1,4.5,345, 255,979.25
2005-03-08 21:00,2.9,5.3,6.3, 19, 818,977.57
2005-03-08 22:00,2.3,9.7,12.6,356,1514,975.41
2005-03-08 23:00,0.9,14.0,16.9,356, 633,973.61
2005-03-09 00:00,-0.7,14.7,18.9,351,1485,971.21
2005-03-09 01:00,-2.1,13.8,16.7,348, 676,969.89
2005-03-09 02:00,-4.1,16.1,20.0,345,2956,967.55
2005-03-09 03:00,-4.9,17.0,20.1,340,2956,966.64
2005-03-09 04:00,-5.1,16.3,19.8,332,2956,966.88
2005-03-09 05:00,-5.1,15.1,17.7,312,2956,968.81
2005-03-09 06:00,-6.0,15.3,19.5,306,2956,969.95
2005-03-09 07:00,-6.8,16.2,19.8,296,2956,971.45
2005-03-09 08:00,-7.2,15.2,19.3,286,2956,973.79
2005-03-09 09:00,-7.8,15.1,19.2,282,2956,976.79
2005-03-09 10:00,-8.4,14.6,18.6,279,2956,978.95
2005-03-09 11:00,-8.0,13.2,17.3,273,2956,981.17
2005-03-09 12:00,-7.6,13.7,17.4,269,2956,982.97
2005-03-09 13:00,-7.7,13.4,16.9,266,2956,984.71
2005-03-09 14:00,-8.2,13.5,16.5,258,2957,986.39
2005-03-09 15:00,-8.6,13.5,17.4,265,2957,987.71
2005-03-09 16:00,-8.1,14.2,17.3,259,2957,988.85
2005-03-09 17:00,-7.7,12.9,16.5,257,2956,991.85
2005-03-09 18:00,-7.9,12.6,15.7,260,2957,993.95
2005-03-09 19:00,-7.2,10.8,13.6,259,2953,994.37
2005-03-09 20:00,-6.5,11.8,15.6,260,2956,996.05
2005-03-09 21:00,-6.2,11.4,14.8,264,2952,996.65
2005-03-09 22:00,-6.0,10.2,12.8,281,2956,
2005-03-09 23:00,-6.6,10.1,12.4,280,2951,
2005-03-10 00:00,-6.2,8.9,11.7,277,2943,
2005-03-10 01:00,-5.8,10.2,13.6,280,2950,
2005-03-10 02:00,-5.6,11.4,14.2,270,2946,
2005-03-10 03:00,-5.9,10.8,13.4,264,2945,
2005-03-10 04:00,-5.9,10.8,13.3,268,2936,
2005-03-10 05:00,-6.0,9.7,11.4,274,2940,
2005-03-10 06:00,-6.5,9.1,11.4,279,2940,
2005-03-10 07:00,-6.7,7.6,10.0,281,2922,
2005-03-10 08:00,-7.0,6.0,8.6,277,2919,
2005-03-10 09:00,-6.8,6.3,9.0,267,2925,
2005-03-10 10:00,-6.7,7.3,11.4,260,2921,
2005-03-10 11:00,-6.8,8.0,10.6,276,2888,
2005-03-10 12:00,-7.2,7.4,9.9,282,2879,
2005-03-10 13:00,-7.3,7.2,9.1,288,2885,
2005-03-10 14:00,-6.9,7.3,9.2,274,2864,
2005-03-10 15:00,-7.1,7.5,9.4,270,2852,
2005-03-10 16:00,-7.0,6.7,9.0,255,2829,
2005-03-10 17:00,-6.8,6.7,8.7,270,2840,
2005-03-10 18:00,-6.3,5.9,7.7,262,2820,
2005-03-10 19:00,-6.0,5.7,6.9,270,2711,
2005-03-10 20:00,-5.3,5.2,6.6,258,2678,
2005-03-10 21:00,-4.7,4.5,6.2,262,2629,
2005-03-10 22:00,-4.2,5.3,7.2,250,2665,
2005-03-10 23:00,-4.1,5.1,7.3,274,2691,
2005-03-11 00:00,-4.0,3.3,4.5,254,2673,
2005-03-11 01:00,-3.5,3.6,4.8,248,2647,
2005-03-11 02:00,-3.0,3.6,5.1,277,2612,
2005-03-11 03:00,-2.8,4.4,7.1,282,2566,
2005-03-11 04:00,-3.5,4.6,6.1,  2,2569,
2005-03-11 05:00,-4.0,2.3,4.9,342,2554,
2005-03-11 06:00,-4.1,2.3,4.3,346,2569,
2005-03-11 07:00,-4.2,1.4,3.4,338,2576,
2005-03-11 08:00,-3.9,2.8,4.5,338,2553,
2005-03-11 09:00,-4.0,3.2,4.7, 38,2536,
2005-03-11 10:00,-4.1,2.0,3.3, 66,2552,
2005-03-11 11:00,-4.0,1.1,3.2, 58,2519,
2005-03-11 12:00,-3.1,2.3,3.8, 71,2377,
2005-03-11 13:00,-2.6,2.4,4.4,159, 229,
2005-03-11 14:00,-2.5,5.0,7.1,201, 101,1006.91
2005-03-11 15:00,-2.4,5.0,6.1,195,  77,1006.61
2005-03-11 16:00,-2.2,4.3,7.5,198,  51,1006.25
2005-03-11 17:00,-1.9,3.3,4.9,196,  45,1005.77
2005-03-11 18:00,-1.5,4.0,5.3,184,1316,1005.23
2005-03-11 19:00,-1.0,4.6,6.7,169,2951,1004.57
2005-03-11 20:00,-0.5,5.9,8.4,155,2933,1004.15
2005-03-11 21:00,-0.6,6.2,8.9,161,2957,1003.97
2005-03-11 22:00,-0.4,7.1,8.4,137,2956,1003.37
2005-03-11 23:00,-0.4,9.1,10.7,136,1998,1003.31
2005-03-12 00:00,-1.4,10.4,12.3,132,2956,1003.19
2005-03-12 01:00,-0.8,9.7,11.8,120,2956,1002.77
2005-03-12 02:00,-0.5,10.6,12.4,111,2956,1001.99
2005-03-12 03:00,0.1,10.5,12.8,106,2956,1000.97
2005-03-12 04:00,0.1,10.9,13.1,105,2956,999.71
2005-03-12 05:00,0.7,11.5,13.3,108, 396,998.39
2005-03-12 06:00,0.9,10.4,12.7,103,1144,997.49
2005-03-12 07:00,1.7,11.1,13.6,111,2188,996.05
2005-03-12 08:00,1.9,10.7,13.4,118,1880,995.33
2005-03-12 09:00,2.2,10.1,12.6,117,2426,994.61
2005-03-12 10:00,2.1,9.6,11.7,106,2734,994.55
2005-03-12 11:00,2.0,10.4,15.9,107,2458,994.55
2005-03-12 12:00,1.5,9.0,16.0,106,1526,994.37
2005-03-12 13:00,2.0,11.1,20.7, 95,1265,993.23
2005-03-12 14:00,2.1,11.6,13.4, 80,2058,992.27
2005-03-12 15:00,1.9,14.5,17.6, 86,2552,990.89
2005-03-12 16:00,1.0,13.4,15.5, 72,1228,990.71
2005-03-12 17:00,0.5,13.4,16.0, 69, 899,990.35
2005-03-12 18:00,0.6,13.5,16.8, 64,2060,990.05
2005-03-12 19:00,0.4,14.1,16.7, 55,1188,990.47
2005-03-12 20:00,-0.0,14.4,17.3, 50,2242,991.07
2005-03-12 21:00,0.1,14.0,18.0, 59,2726,992.33
2005-03-12 22:00,0.7,14.4,17.0, 58,2742,993.71
2005-03-12 23:00,0.9,10.9,14.1, 56,2942,995.99
2005-03-13 00:00,0.6,5.5,8.1, 20,2835,997.97
2005-03-13 01:00,-0.9,5.2,7.2,331,1671,999.05
2005-03-13 02:00,-1.3,6.0,8.7,334,2876,999.89
2005-03-13 03:00,-1.4,8.0,9.7,355,2956,1000.31
2005-03-13 04:00,-0.9,7.8,9.5, 15,2956,1000.55
2005-03-13 05:00,-1.7,8.4,10.0,  5,2956,1000.67
2005-03-13 06:00,-2.8,8.1,10.2,  2,2956,1000.79
2005-03-13 07:00,-3.8,7.8,9.1,  6,2956,1000.61
2005-03-13 08:00,-4.2,8.1,9.7, 20,2956,1000.85
2005-03-13 09:00,-4.3,7.7,9.6, 13,2956,1001.63
2005-03-13 10:00,-4.3,7.4,8.8, 13,2956,1002.41
2005-03-13 11:00,-4.5,5.4,7.6,344,2956,1003.55
2005-03-13 12:00,-4.5,6.0,7.5,  3,2832,1004.15
2005-03-13 13:00,-4.5,4.7,6.2,  5,2795,1004.45
2005-03-13 14:00,-4.3,3.4,4.7,359,2957,1004.75
2005-03-13 15:00,-4.1,3.3,4.9,301,2957,1004.69
2005-03-13 16:00,-3.3,4.5,5.6,283,2951,1004.27
2005-03-13 17:00,-2.7,5.0,7.0,287,2957,1003.85
2005-03-13 18:00,-1.8,7.7,9.5,262,2957,1003.07
2005-03-13 19:00,-1.2,8.2,10.1,260,2788,1002.71
2005-03-13 20:00,-0.3,7.3,9.3,255,2944,1002.59
2005-03-13 21:00,0.7,6.8,8.5,267,2506,1002.53
2005-03-13 22:00,1.3,8.1,9.4,270,2951,1002.77
2005-03-13 23:00,1.9,7.5,9.1,268,2956,1003.25
2005-03-14 00:00,1.8,7.6,9.2,297,2956,1003.61
2005-03-14 01:00,1.4,9.4,12.1,300,2956,1003.91
2005-03-14 02:00,0.7,9.8,12.1,298,2954,1004.33
2005-03-14 03:00,0.2,9.9,12.2,292,2954,1004.57
2005-03-14 04:00,-0.1,8.5,10.6,290,2955,1004.69
2005-03-14 05:00,-0.4,8.4,10.3,298,2956,1004.87
2005-03-14 06:00,-0.4,7.5,9.1,290,2956,1005.35
2005-03-14 07:00,-0.4,7.2,9.6,273,2956,1005.47
2005-03-14 08:00,-0.4,7.3,8.7,284,2956,1005.11
2005-03-14 09:00,-0.6,7.0,8.4,283,2956,1004.99
2005-03-14 10:00,-0.7,6.3,7.8,289,2956,1005.17
2005-03-14 11:00,-0.6,6.9,8.3,297,2883,1005.53
2005-03-14 12:00,-0.7,8.0,9.3,298,2957,1005.65
2005-03-14 13:00,-0.7,7.3,9.2,294,2954,1005.59
2005-03-14 14:00,-0.6,7.8,9.2,290,2899,1005.17
2005-03-14 15:00,-0.1,7.6,9.1,284,2900,1004.81
2005-03-14 16:00,0.6,7.1,9.0,286,2885,1004.27
2005-03-14 17:00,1.2,6.8,8.4,261,2922,1003.79
2005-03-14 18:00,2.3,6.0,7.3,276,2893,1003.01
2005-03-14 19:00,2.8,6.8,8.1,287,2933,1002.53
2005-03-14 20:00,3.1,6.7,7.8,290,2945,1002.41
2005-03-14 21:00,3.2,6.5,7.7,295,2864,1002.77
2005-03-14 22:00,3.2,7.3,9.0,289,2700,1003.13
2005-03-14 23:00,2.9,7.3,8.7,297,2956,1003.61
2005-03-15 00:00,2.0,10.3,12.1,333,2956,1004.15
2005-03-15 01:00,0.5,9.0,10.9,349,2909,1004.69
2005-03-15 02:00,0.3,7.2,9.0,323,2956,1004.87
2005-03-15 03:00,0.2,8.3,10.0,324,2956,1004.27
2005-03-15 04:00,-0.1,8.2,10.4,313,2449,1003.97
2005-03-15 05:00,-0.2,8.9,11.7,310,2295,1003.73
2005-03-15 06:00,-0.4,8.6,9.7,318,2193,1003.55
2005-03-15 07:00,-0.1,9.0,10.7,320,2295,1003.25
2005-03-15 08:00,0.0,9.2,10.9,320,2704,1003.19
2005-03-15 09:00,0.0,9.1,11.2,320,2902,1003.49
2005-03-15 10:00,-0.2,10.1,11.8,325,2286,1003.91
2005-03-15 11:00,-0.2,9.6,11.4,327,2212,1004.51
2005-03-15 12:00,0.2,10.3,13.2,333,2656,1004.87
2005-03-15 13:00,0.1,10.1,11.5,333,2728,1005.41
2005-03-15 14:00,0.4,8.4,10.0,330,2775,1005.89
2005-03-15 15:00,1.7,8.4,9.6,341,2954,1005.89
2005-03-15 16:00,2.4,7.3,8.6,342,2948,1006.01
2005-03-15 17:00,2.8,4.1,5.9,324,2954,1006.25
2005-03-15 18:00,3.6,4.5,7.1,330,2954,1006.07
2005-03-15 19:00,3.1,1.2,3.2,134,2956,1006.13
2005-03-15 20:00,3.4,2.7,3.1,208,2953,1006.01
2005-03-15 21:00,4.1,2.3,2.9,230,2737,1005.77
2005-03-15 22:00,4.3,6.0,6.9,290,2956,1005.95
2005-03-15 23:00,4.1,7.3,8.7,296,2956,1006.61
2005-03-16 00:00,3.5,5.8,7.7,294,2956,1007.21
2005-03-16 01:00,3.2,7.6,8.7,303,2956,1006.85
2005-03-16 02:00,2.7,6.2,7.3,310,2956,1007.39
2005-03-16 03:00,2.4,5.9,7.1,301,2956,1007.21
2005-03-16 04:00,2.2,7.3,9.2,313,2956,1006.67
2005-03-16 05:00,2.1,7.0,8.1,306,2956,1006.67
2005-03-16 06:00,2.1,7.0,8.7,302,2956,1006.91
2005-03-16 07:00,2.0,6.4,7.8,275,2956,1007.27
2005-03-16 08:00,1.8,6.7,7.8,287,2915,1007.21
2005-03-16 09:00,0.5,7.0,8.5,312,1450,1007.63
2005-03-16 10:00,0.2,6.8,8.6,309,1925,1007.93
2005-03-16 11:00,0.6,8.0,9.6,325,2956,1007.93
2005-03-16 12:00,0.6,7.3,8.8,326,2956,1008.35
2005-03-16 13:00,0.9,6.4,7.4,326,2956,1008.71
2005-03-16 14:00,1.1,6.5,7.6,345,2782,1008.77
2005-03-16 15:00,0.8,6.7,8.4,347,2820,1009.13
2005-03-16 16:00,1.0,5.6,6.4,345,2703,1009.25
2005-03-16 17:00,1.5,3.4,4.0,320,2901,1009.49
2005-03-16 18:00,1.6,4.1,4.9,352,2948,1009.43
2005-03-16 19:00,1.7,1.7,2.3,315,2957,1009.19
2005-03-16 20:00,2.2,1.2,1.6,234,2957,1008.77
2005-03-16 21:00,2.3,2.9,3.3,228,2957,1009.07
2005-03-16 22:00,2.6,2.3,2.7,274,2956,1008.95
2005-03-16 23:00,2.8,3.0,3.3,290,2956,1010.16
2005-03-17 00:00,3.1,5.5,6.3,314,2956,1010.82
2005-03-17 01:00,2.3,8.7,11.2,302,2956,1011.12
2005-03-17 02:00,1.4,9.0,10.6,306,2956,1011.48
2005-03-17 03:00,0.9,9.7,11.4,323,2956,1011.06
2005-03-17 04:00,0.5,10.2,13.1,331,2956,1010.82
2005-03-17 05:00,0.4,9.7,12.0,312,2956,1011.18
2005-03-17 06:00,-0.1,9.1,11.1,307,2956,1011.18
2005-03-17 07:00,-0.3,8.1,9.9,303,2956,1010.88
2005-03-17 08:00,-0.5,8.5,10.6,300,2956,1010.76
2005-03-17 09:00,-0.7,9.0,11.0,301,2956,1010.94
2005-03-17 10:00,-0.9,9.4,10.9,305,2956,1011.12
2005-03-17 11:00,-1.1,8.5,10.0,306,2742,1011.24
2005-03-17 12:00,-1.2,7.0,8.2,300,2560,1011.60
2005-03-17 13:00,-1.2,6.9,8.2,294,2686,1011.84
2005-03-17 14:00,-1.1,7.6,8.9,293,2957,1011.72
2005-03-17 15:00,-0.9,5.6,7.1,300,2940,1011.36
2005-03-17 16:00,-0.2,4.4,5.6,290,2957,1011.00
2005-03-17 17:00,0.5,3.6,4.6,279,2957,1010.58
2005-03-17 18:00,1.3,3.1,4.3,266,2955,1009.97
2005-03-17 19:00,1.6,4.4,5.3,223,2955,1010.03
2005-03-17 20:00,2.0,5.5,6.3,225,2712,1009.97
2005-03-17 21:00,2.6,4.8,5.8,233,2627,1009.67
2005-03-17 22:00,2.2,5.3,6.2,231,2535,1009.67
2005-03-17 23:00,2.0,5.4,6.5,236,2956,1010.16
2005-03-18 00:00,2.0,6.1,6.8,246,2956,1010.94
2005-03-18 01:00,2.1,5.5,6.4,249,2956,1011.48
2005-03-18 02:00,2.1,6.2,7.1,266,2956,1011.78